SCP
0 0 0 0 0 0 0 0 0 0 0 0 0 0 0 0 0 0 0 0 0 0 0 0 0 0 0 0 0 0 0 0 0 0 0 0 0 0 0 0 0 0 0
0 0 0 0 0 0 0 0 0 0 0 0 0 0 0 0 0 0 0 0 0 0 0 0 0 0 0 0 0 0 0 0 0 0 0 0 0 0 0 0 0 0 0
0 0 0 0 0 0 0 0 0 0 0 0 0 0 0 0 0 0 0 0 0 0 0 0 0 0 0 0 0 0 0 0 0 0 0 0 0 0 0 0 0 0 0
0 0 0 0 0 0 0 0 0 0 0 0 0 0 0 0 0 0 0 0 0 0 0 0 0 0 0 0 0 0 0 0 0 0 0 0 0 0 0 0 0 0 0
0 0 0 0 0 0 0 0 0 0 0 0 0 0 0 0 0 0 0 0 0 0 0 0 0 0 0 0 0 0 0 0 0 0 0 0 0 0 0 0 0 0 0
0 0 0 0 0 0 0 0 0 0 0 0 0 0 0 0 0 0 0 0 0 0 0 0 0 0 0 0 0 0 0 0 0 0 0 0 0 0 0 0 0 0 0
0 0 0 0 0 0 0 0 0 0 0 0 0 0 0 0 0 0 0 0 0 0 0 0 0 0 0 0 0 0 0 0 0 0 0 0 0 0 0 0 0 0 0
0 0 0 0 0 0 0 0 0 0 0 0 0 0 0 0 0 0 0 0 0 0 0 0 0 0 0 0 0 0 0 0 0 0 0 0 0 0 0 0 0 0 0
0 0 0 0 0 0 0 0 0 0 0 0 0 0 0 0 0 0 0 0 0 0 0 0 0 0 0 0 0 0 0 0 0 0 0 0 0 0 0 0 0 0 0
0 0 0 0 0 0 0 0 0 0 0 0 0 0 0 0 0 0 0 0 0 0 0 0 0 0 0 0 0 0 0 0 0 0 0 0 0 0 0 0 0 0 0
0 0 0 0 0 0 0 0 0 0 0 0 0 0 0 0 0 0 0 0 0 0 0 0 0 0 0 0 0 0 0 0 0 0 0 0 0 0 0 0 0 0 0
0 0 0 0 0 0 0 0 0 0 0 0 0 0 0 0 0 0 0 0 0 0 0 0 0 0 0 0 0 0 0 0 0 0 0 0 0 0 0 0 0 0 0
0 0 0 0 0 0 0 0 0 0 0 0 0 0 0 0 0 0 0 0 0 0 0 0 0 0 0 0 0 0 0 0 0 0 0 0 0 0 0 0 0 0 0
0 0 0 0 0 0 0 0 0 0 0 0 0 0 0 0 0 0 0 0 0 0 0 0 0 0 0 0 0 0 0 0 0 0 0 0 0 0 0 0 0 0 0
0 0 0 0 0 0 0 0 0 0 0 0 0 0 0 0 0 0 0 0 0 0 0 0 0 0 0 0 0 0 0 0 0 0 0 0 0 0 0 0 0 0 0
0 0 0 0 0 0 0 0 0 0 0 0 0 0 0 0 0 0 0 0 0 0 0 0 0 0 0 0 0 0 0 0 0 0 0 0 0 0 0 0 0 0 0
0 0 0 0 0 0 0 0 0 0 0 0 0 0 0 0 0 0 0 0 0 0 0 0 0 0 0 0 0 0 0 0 0 0 0 0 0 0 0 0 0 0 0
0 0 0 0 0 0 0 0 0 0 0 0 0 0 0 0 0 0 0 0 0 0 0 0 0 0 0 0 0 0 0 0 0 0 0 0 0 0 0 0 0 0 0
0 0 0 0 0 0 0 0 0 0 0 0 0 0 0 0 0 0 0 0 0 0 0 0 0 0 0 0 0 0 0 0 0 0 0 0 0 0 0 0 0 0 0
0 0 0 0 0 0 0 0 0 0 0 0 0 0 0 0 0 0 0 0 0 0 0 0 0 0 0 0 0 0 0 0 0 0 0 0 0 0 0 0 0 0 0
0 0 0 0 0 0 0 0 0 0 0 0 0 0 0 0 0 0 0 0 0 0 0 0 0 0 0 0 0 0 0 0 0 0 0 0 0 0 0 0 0 0 0
0 0 0 0 0 0 0 0 0 0 0 0 0 0 0 0 0 0 0 0 0 0 0 0 0 0 0 0 0 0 0 0 0 0 0 0 0 0 0 0 0 0 0
0 0 0 0 0 0 0 0 0 0 0 0 0 0 0 0 0 0 0 0 0 0 0 0 0 0 0 0 0 0 0 0 0 0 0 0 0 0 0 0 0 0 0
0 0 0 0 0 0 0 0 0 0 0 0 0 0 0 0 0 0 0 0 0 0 0 0 0 0 0 0 0 0 0 0 0 0 0 0 0 0 0 0 0 0 0
0 0 0 0 0 0 0 0 0 0 0 0 0 0 0 0 0 0 0 0 0 0 0 0 0 0 0 0 0 0 0 0 0 0 0 0 0 0 0 0 0 0 0
0 0 0 0 0 0 0 0 0 0 0 0 0 0 0 0 0 0 0 0 0 0 0 0 0 0 0 0 0 0 0 0 0 0 0 0 0 0 0 0 0 0 0
Wind_Speed
1 1 6 9 11 12 12 13 13 13 14 14 14 14 14 14 13 13 13 13 13 13 14 14 14 13 13 13 13 13 13 13 13 13 13 13 13 13 13 13 12 9 14
3 3 8 9 11 12 12 12 12 12 13 13 13 13 13 13 12 13 13 13 12 12 13 13 13 13 13 13 13 13 12 12 12 12 12 12 13 12 12 13 12 8 13
5 3 6 9 10 11 11 12 12 12 13 13 12 12 12 13 12 13 13 13 12 12 12 12 12 12 12 13 12 12 11 11 11 11 11 6 8 11 11 12 13 12 12
5 3 5 10 10 11 11 11 12 12 11 12 12 12 12 12 12 12 12 12 12 12 12 12 12 12 12 12 12 12 11 11 11 11 6 5 5 10 11 11 12 12 12
5 3 5 10 10 10 10 11 11 11 11 11 11 12 12 11 11 12 12 12 11 12 12 11 11 11 11 11 11 11 10 10 11 8 5 4 4 9 10 11 11 11 12
4 3 5 10 10 10 10 10 11 11 11 11 10 11 11 11 11 11 11 11 11 11 11 11 10 10 10 10 10 9 9 9 8 6 5 4 4 8 10 11 11 11 11
4 3 4 9 9 9 9 9 10 10 10 10 10 9 10 10 10 10 10 10 9 9 10 10 9 9 9 9 8 9 9 9 6 5 5 4 4 7 9 10 10 10 11
4 3 3 8 9 8 8 9 9 9 9 9 9 9 9 9 9 9 9 9 9 9 9 9 9 8 8 8 7 8 9 8 7 5 5 4 5 7 8 9 9 10 10
4 3 2 3 5 7 7 8 8 8 8 8 8 8 8 8 8 8 7 8 8 8 8 8 8 8 7 7 7 7 7 8 5 4 5 3 6 7 9 9 9 10 10
3 2 2 2 2 2 3 6 7 7 7 7 7 7 7 7 7 7 6 6 7 7 7 7 7 7 7 6 6 6 6 6 4 4 3 4 7 8 9 9 9 10 10
3 1 2 2 2 2 1 3 5 6 6 5 5 6 5 3 3 3 5 6 6 6 6 6 6 6 6 5 5 5 5 3 4 3 2 5 7 8 8 9 9 9 10
6 4 2 2 2 2 2 2 2 2 3 3 2 3 3 2 2 2 3 5 5 5 5 5 5 5 4 3 3 4 2 3 3 3 3 6 7 8 8 8 9 9 9
6 5 4 3 3 2 1 2 1 1 2 2 2 2 2 2 2 2 1 2 2 3 3 3 3 2 2 2 1 1 2 2 2 2 3 7 7 7 8 8 9 9 9
6 6 4 4 3 3 2 2 2 1 1 1 1 2 2 1 1 1 1 1 1 1 2 2 1 2 2 1 1 2 2 2 2 1 2 6 7 7 8 8 9 10 9
6 6 5 5 4 4 3 2 2 2 2 2 1 2 2 2 1 1 1 1 1 1 1 1 1 1 1 1 1 1 2 2 2 2 2 6 6 7 8 8 9 9 9
7 7 5 5 5 4 3 3 2 2 2 2 2 2 3 2 2 2 1 1 1 1 1 1 1 1 0 0 0 1 2 2 2 2 2 3 6 7 7 8 9 9 10
7 6 6 6 5 5 4 4 3 2 3 2 2 2 3 3 3 2 1 1 1 1 1 1 0 1 0 0 1 1 1 2 2 3 3 2 3 5 7 8 8 9 10
6 6 6 6 6 5 4 3 2 2 2 2 2 2 3 3 3 3 2 2 1 1 1 1 1 1 0 0 0 0 0 1 2 3 2 2 2 3 5 7 7 8 9
7 7 6 5 6 5 4 3 2 2 2 2 2 2 3 3 4 3 2 2 2 2 1 2 2 2 1 1 0 1 1 1 2 2 3 3 3 3 3 5 7 7 8
7 6 6 5 5 5 3 2 1 1 1 1 2 2 3 3 4 3 2 3 3 2 2 2 2 1 1 1 0 0 1 1 1 2 3 3 3 4 3 3 3 4 6
7 7 7 6 5 5 3 3 2 2 2 1 2 3 3 3 3 3 3 3 3 2 3 3 2 2 1 1 1 1 1 1 1 1 2 2 3 3 3 3 3 2 3
8 8 7 7 6 6 4 3 2 2 2 2 1 1 3 3 4 4 4 3 3 3 3 3 3 2 1 2 2 1 1 2 1 1 1 2 2 2 3 3 3 4 3
9 9 9 8 7 6 5 3 2 2 1 1 1 1 2 3 3 3 4 4 3 3 3 4 4 4 3 2 2 3 2 2 1 1 1 1 1 2 2 2 4 4 4
10 8 7 7 7 6 6 5 5 4 3 3 2 2 2 2 3 3 4 4 4 3 4 4 4 3 3 2 2 2 2 3 2 1 1 1 1 2 2 2 3 3 3
8 8 7 6 6 6 6 7 6 4 3 2 2 2 2 2 2 3 3 4 4 3 4 4 3 4 3 3 3 2 2 1 2 2 2 1 1 1 2 2 2 2 3
6 6 6 7 6 6 7 6 6 6 4 3 3 3 2 1 1 2 3 3 3 3 4 4 4 4 4 4 3 3 3 3 3 3 3 2 2 1 1 2 2 2 2
Wind_Direction
161 144 114 110 108 108 108 107 107 109 112 114 117 121 121 120 120 122 120 120 120 121 121 120 121 121 122 121 121 118 118 118 120 122 122 122 123 123 123 122 119 117 119
147 143 125 118 115 113 112 109 108 109 110 114 116 120 122 122 122 122 121 121 120 120 122 122 122 124 123 120 120 120 121 122 124 125 123 124 126 126 125 124 125 125 124
129 129 128 124 118 115 115 115 114 113 114 117 118 118 121 123 123 123 122 121 121 121 122 123 124 125 123 121 121 120 120 121 125 123 116 111 124 130 131 131 129 128 125
126 118 124 125 119 117 118 120 120 119 120 119 118 117 119 122 123 123 121 121 122 122 120 121 124 126 124 122 120 119 119 120 120 115 105 107 120 132 133 132 131 129 127
121 117 135 127 125 120 118 124 124 124 123 121 120 120 120 121 122 123 120 119 120 121 121 123 125 124 124 123 122 121 123 126 120 111 104 101 105 133 137 136 133 131 130
124 125 142 132 128 125 123 123 126 125 125 125 124 126 125 124 124 124 123 121 120 122 123 124 125 123 123 125 128 128 129 128 117 111 110 112 118 137 140 139 138 135 134
133 133 143 135 134 132 129 128 127 127 127 127 127 128 125 125 127 128 126 123 123 124 124 123 124 125 123 123 130 133 132 128 120 121 123 124 133 142 140 140 141 138 138
131 126 136 142 141 140 138 135 133 132 131 130 131 131 128 129 129 129 128 126 126 124 122 121 122 122 122 121 125 130 131 133 129 131 132 137 147 147 144 143 144 143 143
112 108 106 128 141 145 143 142 139 136 133 132 133 134 134 133 131 130 131 132 131 129 127 126 126 123 119 118 122 128 129 132 127 133 145 144 155 154 152 152 153 152 151
108 107 104 99 96 107 134 148 144 139 136 135 136 136 136 136 133 135 136 138 136 132 131 131 129 125 122 118 121 127 129 122 130 138 143 160 168 166 162 161 162 160 160
156 140 130 118 110 109 130 153 141 139 133 127 128 129 115 81 84 112 136 142 144 141 137 131 128 128 119 110 114 120 118 123 138 147 157 174 178 179 175 172 170 169 169
184 185 172 157 148 139 150 98 77 84 89 87 79 80 79 80 88 103 125 143 144 142 135 127 121 112 97 85 87 94 109 137 148 161 176 185 189 189 184 179 177 176 176
184 186 182 176 167 160 134 115 96 87 90 93 99 96 95 85 76 71 61 71 77 94 80 83 78 77 90 101 94 100 133 143 160 172 184 191 193 193 191 187 184 183 184
177 189 187 177 173 175 158 142 136 129 122 127 132 128 113 102 96 97 85 67 61 66 74 74 85 84 85 94 116 131 149 160 169 175 196 201 200 200 199 196 190 188 191
184 189 188 182 182 175 166 173 163 163 162 166 155 152 152 150 148 137 115 95 100 103 105 99 98 94 88 78 136 154 161 176 181 187 205 213 209 206 204 202 199 198 200
190 188 181 184 186 176 178 181 172 170 164 163 171 180 173 170 169 161 156 151 155 144 138 127 129 113 112 121 131 153 173 188 196 197 206 222 219 211 211 210 209 208 206
188 183 181 184 180 181 185 188 175 169 165 175 181 187 187 182 176 168 170 184 196 155 140 131 120 98 121 120 121 149 178 201 205 208 208 215 224 220 217 216 216 215 215
178 180 185 185 177 182 181 179 165 165 168 179 179 188 197 188 178 168 173 193 175 152 152 151 143 110 68 111 130 280 235 223 223 218 215 221 227 228 225 222 221 220 219
180 179 181 182 174 176 173 161 151 156 179 186 181 190 196 189 180 174 182 185 162 156 164 177 149 151 169 177 214 261 263 247 236 224 219 223 227 228 227 228 226 223 225
176 176 180 180 171 160 148 130 119 136 175 182 189 204 196 191 184 175 182 185 168 164 175 166 161 153 167 171 171 9 316 277 256 229 228 223 220 221 223 230 227 228 228
173 178 182 181 174 160 154 160 160 185 187 194 208 211 200 192 185 179 188 178 176 182 189 173 158 158 169 148 110 16 353 348 283 249 234 226 227 223 220 227 221 227 236
184 187 187 189 182 180 177 169 164 159 175 190 210 214 210 195 193 192 186 187 186 180 180 179 163 159 185 171 149 122 335 337 353 317 251 228 231 221 224 228 221 224 229
192 193 193 193 188 186 174 141 116 94 83 133 211 219 220 204 199 194 188 186 187 183 192 194 181 176 190 200 179 161 173 229 288 318 289 252 236 228 236 235 228 228 227
199 192 190 187 186 183 170 170 169 175 188 205 198 205 224 215 205 199 192 191 193 192 198 205 194 188 179 200 200 203 193 174 181 270 299 275 256 243 242 242 241 231 226
189 184 185 179 182 180 179 182 182 189 193 187 177 197 222 227 217 208 198 193 200 204 204 203 195 194 191 195 193 187 188 186 186 197 252 268 276 254 244 239 238 236 231
175 177 177 176 185 183 184 184 188 191 187 184 194 203 220 226 224 213 204 199 201 205 210 209 204 202 204 203 201 193 186 184 193 192 220 245 262 267 258 248 239 236 235